Weather History for Bolton Field, OH

Change the Weather History Date:

Thursday, September 12, 2013

  Actual Average Record
Temperature  
Mean Temperature 70 °F -  
Max Temperature 75 °F 77 °F 89 °F (1999)
Min Temperature 63 °F 56 °F 48 °F (2007)
Cooling Degree Days 4    
Growing Degree Days 20 (Base 50)    
Moisture  
Dew Point 67 °F    
Average Humidity 91    
Maximum Humidity 100    
Minimum Humidity 65    
Precipitation  
Precipitation 0.00 in - - ()
Sea Level Pressure  
Sea Level Pressure 29.96 in    
Wind  
Wind Speed 6 mph (WSW)    
Max Wind Speed 17 mph    
Max Gust Speed 26 mph    
Visibility 7 miles    
Events Rain    
Averages and records for this station are not official NWS values.
T = Trace of Precipitation, MM = Missing Value Source: NWS Daily Summary

Daily Weather History Graph

Daily Weather History Graph

Search for Another Location

Airport:

Trip Planner

Search our weather history database for the weather conditions in past years. The results will help you decide how hot, cold, wet, or windy it might be!

Date:

Astronomy

Sep. 12, 2013 Rise Set
Actual Time 7:10 AM EDT 7:45 PM EDT
Civil Twilight 6:43 AM EDT 8:12 PM EDT
Nautical Twilight 6:11 AM EDT 8:44 PM EDT
Astronomical Twilight 5:38 AM EDT 9:17 PM EDT
Moon 2:37 PM EDT (9/12) No Moon Set
Length of Visible Light 13h 29m
Length of Day
12h 34m
Waxing Crescent, 50% of the Moon is Illuminated
Sep 12
Waxing Crescent
Sep 12
First Quarter
Sep 19
Full
Sep 26
Last Quarter
Oct 4
New

Hourly Weather History & Observations

Time (EDT) Temp. Dew Point Humidity Pressure Visibility Wind Dir Wind Speed Gust Speed Precip Events Conditions
12:15 AM 73.4 °F 69.8 °F 88% 30.02 in 7.0 mi SSW 4.6 mph - N/A   Clear
12:35 AM 73.0 °F 69.8 °F 90% 30.02 in 7.0 mi SW 5.8 mph - N/A   Clear
12:55 AM 73.0 °F 69.4 °F 88% 30.01 in 7.0 mi SW 6.9 mph - N/A   Clear
1:15 AM 73.8 °F 69.4 °F 86% 30.00 in 7.0 mi WSW 6.9 mph - N/A   Clear
1:35 AM 73.4 °F 69.4 °F 87% 30.00 in 7.0 mi SW 5.8 mph - N/A   Clear
1:55 AM 72.5 °F 69.4 °F 90% 30.00 in 7.0 mi SSW 5.8 mph - N/A   Clear
2:15 AM 72.1 °F 69.4 °F 91% 30.00 in 7.0 mi North - - N/A   Clear
2:35 AM 72.1 °F 69.6 °F 92% 30.00 in 7.0 mi SW 8.1 mph - N/A   Clear
2:55 AM 72.1 °F 69.8 °F 92% 29.99 in 7.0 mi SW 5.8 mph - N/A   Clear
3:15 AM 72.0 °F 69.8 °F 93% 29.99 in 5.0 mi WSW 6.9 mph - N/A   Clear
3:35 AM 72.0 °F 69.8 °F 93% 29.99 in 5.0 mi WSW 9.2 mph - N/A   Clear
3:55 AM 72.1 °F 69.8 °F 92% 29.99 in 5.0 mi WSW 6.9 mph - N/A   Clear
4:15 AM 72.0 °F 69.4 °F 92% 29.99 in 5.0 mi WSW 5.8 mph - N/A   Clear
4:35 AM 71.4 °F 69.3 °F 93% 29.98 in 5.0 mi WSW 4.6 mph - N/A   Clear
4:55 AM 71.2 °F 69.3 °F 93% 29.98 in 5.0 mi WSW 4.6 mph - N/A   Clear
5:15 AM 70.7 °F 68.9 °F 94% 29.98 in 5.0 mi WSW 4.6 mph - N/A   Clear
5:35 AM 70.0 °F 68.9 °F 96% 29.98 in 5.0 mi WSW 4.6 mph - N/A   Clear
5:55 AM 69.6 °F 68.7 °F 97% 29.98 in 4.0 mi WSW 3.5 mph - N/A   Clear
6:15 AM 68.9 °F 68.4 °F 98% 29.98 in 3.0 mi SW 4.6 mph - N/A   Clear
6:35 AM 69.3 °F 68.7 °F 98% 29.98 in 4.0 mi WSW 3.5 mph - N/A   Clear
6:55 AM 68.2 °F 68.0 °F 99% 29.98 in 3.0 mi SSW 4.6 mph - N/A   Clear
7:15 AM 67.8 °F 67.8 °F 100% 29.98 in 1.5 mi SW 4.6 mph - N/A   Mist
7:20 AM 68.0 °F 68.0 °F 100% 29.98 in 3.0 mi SW 5.8 mph - N/A   Clear
7:47 AM 69.8 °F 69.8 °F 100% 29.99 in 3.0 mi WSW 5.8 mph - N/A   Clear
8:47 AM 71.6 °F 69.8 °F 94% 29.99 in 7.0 mi NW 10.4 mph - N/A   Overcast
9:15 AM 71.6 °F 66.2 °F 83% 29.99 in 7.0 mi NW 8.1 mph - N/A Rain Light Rain
9:36 AM 69.8 °F 66.2 °F 88% 30.02 in 2.0 mi West 8.1 mph 16.1 mph N/A Rain Rain
9:50 AM 68.0 °F 66.2 °F 94% 30.01 in 7.0 mi West 3.5 mph - N/A Rain Light Rain
10:47 AM 68.0 °F 68.0 °F 100% 30.00 in 2.0 mi WSW 4.6 mph - N/A Rain Heavy Rain
11:00 AM 68.0 °F 68.0 °F 100% 29.99 in 7.0 mi WSW 3.5 mph - N/A Rain Light Rain
11:51 AM 68.0 °F 68.0 °F 100% 30.01 in 7.0 mi SW 8.1 mph - N/A Rain Light Rain
12:50 PM 69.8 °F 69.8 °F 100% 29.98 in 7.0 mi WSW 8.1 mph - N/A Rain Light Rain
1:50 PM 71.6 °F 69.8 °F 94% 29.94 in 10.0 mi West 3.5 mph - N/A   Overcast
2:17 PM 71.6 °F 69.8 °F 94% 29.94 in 10.0 mi West 8.1 mph - N/A   Overcast
2:50 PM 73.4 °F 69.8 °F 88% 29.92 in 10.0 mi West 5.8 mph 16.1 mph N/A   Mostly Cloudy
3:50 PM 75.2 °F 69.8 °F 83% 29.89 in 10.0 mi WNW 11.5 mph - N/A   Mostly Cloudy
6:50 PM 75.2 °F 62.6 °F 65% 29.89 in 10.0 mi WNW 5.8 mph - N/A   Scattered Clouds
7:35 PM 71.1 °F 62.6 °F 75% 29.88 in 10.0 mi West 3.5 mph - N/A   Clear
7:55 PM 68.0 °F 63.5 °F 85% 29.88 in 10.0 mi Calm Calm - N/A   Clear
8:15 PM 66.4 °F 63.7 °F 91% 29.87 in 10.0 mi SSW 4.6 mph - N/A   Clear
8:35 PM 66.6 °F 62.8 °F 88% 29.88 in 10.0 mi Calm Calm - N/A   Clear
8:55 PM 65.5 °F 62.6 °F 90% 29.87 in 10.0 mi SSW 3.5 mph - N/A   Clear
9:15 PM 64.9 °F 62.6 °F 92% 29.87 in 10.0 mi SW 3.5 mph - N/A   Scattered Clouds
9:35 PM 65.5 °F 62.6 °F 90% 29.87 in 10.0 mi SW 3.5 mph - N/A   Mostly Cloudy
9:55 PM 66.6 °F 63.0 °F 88% 29.88 in 10.0 mi North - - N/A Rain Rain
10:15 PM 66.6 °F 61.5 °F 84% 29.89 in 10.0 mi NW 5.8 mph - N/A Rain Light Rain
10:35 PM 65.3 °F 61.0 °F 86% 29.88 in 10.0 mi NNW 8.1 mph - N/A   Overcast
10:55 PM 64.4 °F 60.4 °F 87% 29.89 in 10.0 mi NW 5.8 mph - N/A   Scattered Clouds
11:15 PM 64.6 °F 61.0 °F 88% 29.89 in 10.0 mi North 17.3 mph - N/A   Clear
11:35 PM 64.0 °F 61.2 °F 90% 29.91 in 10.0 mi North 16.1 mph 26.5 mph N/A   Scattered Clouds
11:55 PM 63.1 °F 59.0 °F 86% 29.92 in 10.0 mi North 16.1 mph 21.9 mph N/A   Mostly Cloudy